SB KEPS @ AMSAT $ORB09001.N 2Line Orbital Elements 09001.AMSAT
HR AMSAT ORBITAL ELEMENTS FOR AMATEUR SATELLITES IN NASA FORMAT FROM WA5QGD FORT WORTH,TX January 1, 2009 Send Subscribe/unsubscribe to KEPS at http://www.amsat.org/mailman/listinfo/keps BID: ORB09001.N
DECODE 2-LINE ELSETS WITH THE FOLLOWING KEY: 1 AAAAAU 00 0 0 BBBBB.BBBBBBBB .CCCCCCCC 00000-0 00000-0 0 DDDZ 2 AAAAA EEE.EEEE FFF.FFFF GGGGGGG HHH.HHHH III.IIII JJ.JJJJJJJJKKKKKZ KEY: A-CATALOGNUM B-EPOCHTIME C-DECAY D-ELSETNUM E-INCLINATION F-RAAN G-ECCENTRICITY H-ARGPERIGEE I-MNANOM J-MNMOTION K-ORBITNUM Z-CHECKSUM
TO ALL RADIO AMATEURS BT
AO-07 1 07530U 74089B 09001.69239065 -.00000027 00000-0 10000-3 0 3676 2 07530 101.4450 032.3782 0011848 234.3511 125.6459 12.53574970561858 AO-10 1 14129U 83058B 09001.23331382 .00000130 00000-0 10000-3 0 6036 2 14129 026.0301 178.4344 5961997 186.2291 160.4046 02.05868431192186 UO-11 1 14781U 84021B 09001.66121005 -.00000221 00000-0 -22184-4 0 8501 2 14781 098.1310 044.4011 0009611 148.8066 211.3716 14.79685320333206 RS-15 1 23439U 94085A 09001.86047179 -.00000039 00000-0 10000-3 0 1707 2 23439 064.8126 173.7783 0145945 084.1276 277.6261 11.27553551577366 FO-29 1 24278U 96046B 09001.83280979 .00000011 00000-0 45433-4 0 9405 2 24278 098.5772 258.0075 0351215 061.3575 302.2408 13.52941568611252 SO-33 1 25509U 98061B 08366.16232967 -.00000026 00000-0 -18191-4 0 3576 2 25509 031.4356 282.5871 0354901 309.2816 047.6825 14.28233406531799 AO-40 1 26609U 00072B 08365.31891480 -.00000026 00000-0 10000-3 0 1735 2 26609 008.3921 040.7444 7940604 160.4241 269.7479 01.25586134 37503 VO-52 1 28650U 05017B 09001.16423496 .00000341 00000-0 49841-4 0 1180 2 28650 097.7667 068.0800 0026547 213.0054 146.9473 14.81539798197912 PO-63 1 29712U 07001D 09001.82097754 .00000507 00000-0 73008-4 0 1098 2 29712 097.8530 062.0347 0015299 095.7922 264.5026 14.80395831106854 AO-16 1 20439U 90005D 09001.67633673 -.00000030 00000-0 40842-5 0 5008 2 20439 098.2568 337.8601 0010210 310.1121 049.9167 14.31812034989323 LO-19 1 20442U 90005G 09001.69080596 -.00000006 00000-0 12933-4 0 4241 2 20442 098.2230 345.7596 0011224 306.8069 053.2086 14.32049449989481 AO-27 1 22825U 93061C 08366.97056531 .00000057 00000-0 39007-4 0 1422 2 22825 098.4150 319.8667 0009088 041.7845 318.4043 14.29255477796025 IO-26 1 22826U 93061D 09001.48006488 -.00000019 00000-0 91322-5 0 8607 2 22826 098.4080 321.1806 0009591 037.0315 323.1533 14.29505550796193 GO-32 1 25397U 98043D 09001.65712251 -.00000096 00000-0 -24563-4 0 7864 2 25397 098.3432 032.7884 0001787 048.3114 311.8207 14.23152891544442 NO-44 1 26931U 01043C 09001.84271282 -.00000023 00000-0 23281-4 0 642 2 26931 067.0511 132.8861 0006026 257.9820 102.0613 14.29543691378802 SO-50 1 27607U 02058C 09001.67361646 -.00000100 00000-0 69256-5 0 7797 2 27607 064.5554 170.8162 0082133 240.7346 118.5516 14.71404475324172 CO-55 1 27844U 03031E 09001.77481061 .00000048 00000-0 42466-4 0 4786 2 27844 098.7151 013.2801 0009059 263.9257 096.0898 14.20615354285635 CO-57 1 27848U 03031J 09001.58845102 .00000029 00000-0 33809-4 0 4262 2 27848 098.7156 012.1632 0009156 269.2475 090.7639 14.20420756285570 AO-51 1 28375U 04025K 09001.62097809 .00000003 00000-0 13793-4 0 2811 2 28375 098.0574 020.8934 0083220 271.3450 087.8212 14.40629211236978 CO-56 1 28941U 06005C 09001.85067633 .00032755 28169-5 18240-3 0 6867 2 28941 098.1255 147.6379 0129469 033.9625 326.9821 15.68625785161059 CP3 1 31128U 07012M 09001.11373423 -.00000046 00000-0 00000 0 0 5209 2 31128 098.0158 061.9144 0104127 082.8555 278.4476 14.52005935 90653 CP4 1 31132U 07012Q 09001.54033438 .00000163 00000-0 46078-4 0 4983 2 31132 098.0200 065.4776 0086896 072.4670 288.6006 14.55172535 90792 CO-65 1 32785U 08021C 09001.22868296 .00000184 00000-0 30343-4 0 2521 2 32785 097.9697 066.3871 0014379 210.2532 149.7853 14.81433453 36725 NOAA-10 1 16969U 86073A 09001.46390867 .00000028 00000-0 29432-4 0 4380 2 16969 098.7077 028.8863 0012022 326.8590 033.1857 14.27377081159727 NOAA-11 1 19531U 88089A 09001.17528022 -.00000161 00000-0 -60471-4 0 4569 2 19531 098.7917 093.6861 0010900 222.7586 137.2752 14.14883642 45903 NOAA-12 1 21263U 91032A 09001.55361796 .00000031 00000-0 32007-4 0 9610 2 21263 098.7715 009.5401 0011542 271.2301 088.7556 14.25561022916655 MET-3/5 1 21655U 91056A 08366.56129318 .00000051 00000-0 10000-3 0 5365 2 21655 082.5525 324.9280 0012210 240.2348 119.7560 13.17017466835567 MET-2/21 1 22782U 93055A 09001.85678564 .00000075 00000-0 54179-4 0 3404 2 22782 082.5497 313.9592 0024071 092.3606 268.0322 13.83632938774603 OKEAN-4 1 23317U 94066A 09001.00201330 .00000363 00000-0 41949-4 0 7889 2 23317 082.5399 130.5021 0021694 191.5200 168.5557 14.82664306767597 NOAA-14 1 23455U 94089A 09001.50078107 -.00000244 00000-0 -10519-3 0 4588 2 23455 098.9278 079.6552 0008655 305.5883 054.4503 14.13753422722378 NOAA-15 1 25338U 98030A 09001.12201793 -.00000019 00000-0 10203-4 0 7568 2 25338 098.5717 354.1164 0010604 180.1745 179.9411 14.24739248552986 RESURS 1 25394U 98043A 08366.74025925 -.00000010 00000-0 13710-4 0 1073 2 25394 098.3600 041.4300 0001857 010.9351 349.1868 14.24177712544562 FENGYUN1 1 25730U 99025A 08366.92339433 .00000152 00000-0 11424-3 0 6519 2 25730 098.7419 336.2168 0022994 330.2447 029.7413 14.07914268496787 OKEAN-0 1 25860U 99039A 08366.99214097 .00000010 00000-0 88008-5 0 5632 2 25860 097.7678 348.9915 0001503 045.0711 315.0618 14.73551582508528 NOAA-16 1 26536U 00055A 09001.19297388 .00000257 00000-0 16415-3 0 2323 2 26536 099.1712 000.8635 0010820 033.9078 326.2821 14.12507301426725 NOAA-17 1 27453U 02032A 09001.05748933 .00000157 00000-0 86852-4 0 2446 2 27453 098.5103 065.6982 0010917 249.2643 110.7343 14.24030012338968 NOAA-18 1 28654U 05018A 09001.50566668 -.00000157 00000-0 -62509-4 0 7282 2 28654 098.8920 306.1943 0015087 112.0141 248.2618 14.11220755186442 HUBBLE 1 20580U 90037B 09001.69906998 .00000271 00000-0 80874-5 0 2962 2 20580 028.4688 108.4140 0003438 329.8076 030.2315 15.00442985824820 PO-34 1 25520U 98064B 09001.91196810 .00000425 00000-0 11125-4 0 1555 2 25520 028.4612 288.2570 0005234 289.3678 070.6351 15.17278599563378 ISS 1 25544U 98067A 09001.56670644 .00009827 00000-0 78292-4 0 9772 2 25544 051.6417 079.8207 0007278 149.6545 350.5494 15.71913206579744 CO-58 1 28895U 05043F 09001.15554102 .00000284 00000-0 69059-4 0 2009 2 28895 098.0800 256.2499 0018441 147.6495 212.5905 14.59730023169363 FALCON 1 30776U 07006E 08366.52397626 .00000270 00000-0 22636-4 0 4727 2 30776 035.4335 036.5676 0001644 289.6160 070.4379 15.03136753 99853 MAST 1 31126U 07012K 09001.16429139 .00000042 00000-0 19992-4 0 4937 2 31126 098.0155 063.4170 0095879 078.4267 282.7686 14.53468703 90779 CAPE1 1 31130U 07012P 09001.45089885 .00000109 00000-0 35606-4 0 4927 2 31130 098.0169 062.2485 0104049 081.7312 279.5669 14.52022101 90494 COMPASS 1 32787U 08021E 09001.21751844 .00000415 00000-0 59653-4 0 2412 2 32787 097.9665 066.2755 0015226 211.4335 148.5970 14.81525312 36721 AAUSAT2 1 32788U 08021F 09001.46908595 .00000334 00000-0 49230-4 0 2428 2 32788 097.9666 066.5581 0014848 211.3058 148.7274 14.81641011 36761 DO-64 1 32789U 08021G 09001.82388933 .00000415 00000-0 59631-4 0 2546 2 32789 097.9702 066.9837 0015324 208.5927 151.4441 14.81576626 36816 CO-66 1 32791U 08021J 09001.37702890 .00000123 00000-0 22645-4 0 2351 2 32791 097.9691 066.4610 0015467 208.9617 151.0742 14.81367676 36710 RS-30 1 32953U 08025A 09001.49553471 .00000010 00000-0 00000 0 0 1975 2 32953 082.5010 000.2664 0018979 178.4187 181.6977 12.42999297 27684 /EX